• In Germany
  • List of Countries
  • For 7 days
  • Water Temperature
  • Satellite Maps
  • Weather Map
  • Weather Widgets
  • user-avatar
    Login

    Hourly Weather Kipungo

    Today, 23 May, Wednesday

    Time Temperature Precipitation Wind Pressure Humidity
    00:00 +21°C° 0 mm 1 mps 656 mmHg 48%
    01:00 +21°C° 0 mm 1 mps 656 mmHg 49%
    02:00 +20°C° 0 mm 1 mps 655 mmHg 49%
    03:00 +20°C° 0 mm 1 mps 655 mmHg 50%
    04:00 +19°C° 0 mm 1 mps 655 mmHg 50%
    05:00 +19°C° 0 mm 1 mps 655 mmHg 52%
    06:00 +16°C° 0 mm 0 mps 655 mmHg 54%
    07:00 +16°C° 0 mm 0 mps 655 mmHg 55%
    08:00 +21°C° 0 mm 1 mps 656 mmHg 46%
    09:00 +24°C° 0 mm 2 mps 657 mmHg 37%
    10:00 +27°C° 0 mm 3 mps 657 mmHg 28%
    11:00 +28°C° 0 mm 3 mps 657 mmHg 26%
    12:00 +29°C° 0 mm 3 mps 657 mmHg 24%
    13:00 +30°C° 0 mm 2 mps 657 mmHg 21%
    14:00 +29°C° 0 mm 2 mps 656 mmHg 22%
    15:00 +29°C° 0 mm 2 mps 656 mmHg 23%
    16:00 +28°C° 0 mm 2 mps 656 mmHg 24%
    17:00 +26°C° 0 mm 2 mps 655 mmHg 30%
    18:00 +23°C° 0 mm 2 mps 655 mmHg 35%
    19:00 +20°C° 0 mm 2 mps 655 mmHg 40%
    20:00 +19°C° 0 mm 2 mps 655 mmHg 43%
    21:00 +19°C° 0 mm 1 mps 655 mmHg 45%
    22:00 +18°C° 0 mm 1 mps 655 mmHg 47%
    23:00 +18°C° 0 mm 1 mps 655 mmHg 49%

    Tomorrow, 24 May, Thursday

    Time Temperature Precipitation Wind Pressure Humidity
    00:00 +16°C° 0 mm 1 mps 655 mmHg 50%
    01:00 +15°C° 0 mm 1 mps 655 mmHg 52%
    02:00 +15°C° 0 mm 1 mps 654 mmHg 53%
    03:00 +14°C° 0 mm 1 mps 654 mmHg 55%
    04:00 +13°C° 0 mm 0 mps 653 mmHg 56%
    05:00 +14°C° 0 mm 1 mps 654 mmHg 56%
    06:00 +14°C° 0 mm 1 mps 654 mmHg 56%
    07:00 +14°C° 0 mm 1 mps 654 mmHg 56%
    08:00 +19°C° 0 mm 1 mps 655 mmHg 46%
    09:00 +23°C° 0 mm 2 mps 656 mmHg 36%
    10:00 +27°C° 0 mm 3 mps 657 mmHg 25%
    11:00 +27°C° 0 mm 3 mps 657 mmHg 23%
    12:00 +28°C° 0 mm 3 mps 656 mmHg 22%
    13:00 +29°C° 0 mm 3 mps 656 mmHg 20%
    14:00 +29°C° 0 mm 2 mps 655 mmHg 20%
    15:00 +29°C° 0 mm 2 mps 655 mmHg 21%
    16:00 +28°C° 0 mm 2 mps 654 mmHg 21%
    17:00 +25°C° 0 mm 1 mps 654 mmHg 26%
    18:00 +23°C° 0 mm 1 mps 654 mmHg 31%
    19:00 +20°C° 0 mm 1 mps 653 mmHg 35%
    20:00 +19°C° 0 mm 1 mps 654 mmHg 37%
    21:00 +19°C° 0 mm 1 mps 654 mmHg 39%
    22:00 +18°C° 0 mm 1 mps 654 mmHg 40%
    23:00 +16°C° 0 mm 1 mps 654 mmHg 43%

    Day after tomorrow, 25 May, Friday

    Time Temperature Precipitation Wind Pressure Humidity
    00:00 +16°C° 0 mm 1 mps 654 mmHg 46%
    01:00 +15°C° 0 mm 1 mps 653 mmHg 49%
    02:00 +14°C° 0 mm 1 mps 653 mmHg 52%
    03:00 +14°C° 0 mm 1 mps 653 mmHg 54%
    04:00 +14°C° 0 mm 1 mps 653 mmHg 56%
    05:00 +14°C° 0 mm 1 mps 653 mmHg 57%
    06:00 +14°C° 0 mm 1 mps 653 mmHg 58%
    07:00 +14°C° 0 mm 1 mps 654 mmHg 59%
    08:00 +18°C° 0 mm 1 mps 655 mmHg 50%
    09:00 +21°C° 0 mm 2 mps 656 mmHg 40%
    10:00 +26°C° 0 mm 2 mps 656 mmHg 31%
    11:00 +27°C° 0 mm 2 mps 656 mmHg 28%
    12:00 +28°C° 0 mm 2 mps 655 mmHg 25%
    13:00 +29°C° 0 mm 2 mps 655 mmHg 22%
    14:00 +29°C° 0 mm 2 mps 655 mmHg 22%
    15:00 +29°C° 0 mm 1 mps 654 mmHg 22%
    16:00 +29°C° 0 mm 1 mps 654 mmHg 22%
    17:00 +26°C° 0 mm 1 mps 654 mmHg 27%
    18:00 +23°C° 0 mm 1 mps 653 mmHg 31%
    19:00 +20°C° 0 mm 1 mps 653 mmHg 36%
    20:00 +20°C° 0 mm 1 mps 653 mmHg 38%
    21:00 +19°C° 0 mm 1 mps 654 mmHg 39%
    22:00 +18°C° 0 mm 1 mps 654 mmHg 40%
    23:00 +18°C° 0 mm 1 mps 653 mmHg 42%

    26 May, Saturday

    Time Temperature Precipitation Wind Pressure Humidity
    00:00 +16°C° 0 mm 1 mps 653 mmHg 45%
    01:00 +15°C° 0 mm 1 mps 653 mmHg 47%
    02:00 +15°C° 0 mm 1 mps 653 mmHg 50%
    03:00 +14°C° 0 mm 1 mps 652 mmHg 54%
    04:00 +14°C° 0 mm 1 mps 652 mmHg 57%
    05:00 +14°C° 0 mm 1 mps 653 mmHg 59%
    06:00 +14°C° 0 mm 1 mps 653 mmHg 60%
    07:00 +14°C° 0 mm 1 mps 654 mmHg 62%
    08:00 +18°C° 0 mm 2 mps 655 mmHg 52%
    09:00 +21°C° 0 mm 2 mps 655 mmHg 43%
    10:00 +26°C° 0 mm 3 mps 656 mmHg 33%
    11:00 +27°C° 0 mm 3 mps 656 mmHg 30%
    12:00 +28°C° 0 mm 3 mps 655 mmHg 27%
    13:00 +30°C° 0 mm 3 mps 655 mmHg 24%
    14:00 +29°C° 0 mm 2 mps 655 mmHg 24%
    15:00 +29°C° 0 mm 2 mps 654 mmHg 24%
    16:00 +29°C° 0 mm 2 mps 654 mmHg 24%
    17:00 +26°C° 0 mm 2 mps 654 mmHg 30%
    18:00 +23°C° 0 mm 1 mps 654 mmHg 36%
    19:00 +21°C° 0 mm 1 mps 653 mmHg 41%
    20:00 +20°C° 0 mm 1 mps 654 mmHg 44%
    21:00 +19°C° 0 mm 1 mps 654 mmHg 46%
    22:00 +18°C° 0 mm 2 mps 654 mmHg 48%
    23:00 +17°C° 0 mm 2 mps 654 mmHg 52%

    27 May, Sunday

    Time Temperature Precipitation Wind Pressure Humidity
    00:00 +16°C° 0 mm 2 mps 654 mmHg 55%
    01:00 +16°C° 0 mm 2 mps 654 mmHg 59%
    02:00 +15°C° 0 mm 2 mps 654 mmHg 63%
    03:00 +15°C° 0 mm 1 mps 653 mmHg 67%
    04:00 +14°C° 0 mm 1 mps 653 mmHg 71%
    05:00 +14°C° 0 mm 1 mps 654 mmHg 72%
    06:00 +14°C° 0 mm 1 mps 654 mmHg 73%
    07:00 +14°C° 0 mm 1 mps 654 mmHg 74%
    08:00 +18°C° 0 mm 2 mps 655 mmHg 61%
    09:00 +21°C° 0 mm 3 mps 656 mmHg 49%
    10:00 +26°C° 0 mm 4 mps 657 mmHg 37%
    11:00 +27°C° 0 mm 4 mps 656 mmHg 33%
    12:00 +29°C° 0 mm 3 mps 656 mmHg 29%
    13:00 +30°C° 0 mm 3 mps 656 mmHg 25%
    14:00 +30°C° 0 mm 3 mps 655 mmHg 26%
    15:00 +29°C° 0 mm 3 mps 655 mmHg 27%
    16:00 +29°C° 0 mm 3 mps 655 mmHg 28%
    17:00 +27°C° 0 mm 3 mps 655 mmHg 34%
    18:00 +25°C° 0 mm 2 mps 655 mmHg 40%
    19:00 +21°C° 0 mm 2 mps 655 mmHg 47%
    20:00 +21°C° 0 mm 2 mps 655 mmHg 50%
    21:00 +20°C° 0 mm 2 mps 656 mmHg 53%
    22:00 +20°C° 0 mm 1 mps 656 mmHg 56%
    23:00 +20°C° 0 mm 1 mps 655 mmHg 58%

    28 May, Monday

    Time Temperature Precipitation Wind Pressure Humidity
    00:00 +19°C° 0 mm 1 mps 655 mmHg 59%
    01:00 +19°C° 0 mm 1 mps 655 mmHg 61%
    02:00 +19°C° 0 mm 1 mps 655 mmHg 62%
    03:00 +18°C° 0 mm 1 mps 655 mmHg 63%
    04:00 +18°C° 0 mm 1 mps 655 mmHg 64%
    05:00 +18°C° 0 mm 1 mps 655 mmHg 65%
    06:00 +18°C° 0 mm 1 mps 655 mmHg 66%
    07:00 +18°C° 0 mm 1 mps 656 mmHg 67%
    08:00 +21°C° 0 mm 1 mps 656 mmHg 58%
    09:00 +24°C° 0 mm 2 mps 657 mmHg 48%
    10:00 +27°C° 0 mm 3 mps 658 mmHg 38%
    11:00 +27°C° 0 mm 3 mps 657 mmHg 38%
    12:00 +27°C° 0 mm 2 mps 657 mmHg 38%
    13:00 +27°C° 0 mm 2 mps 656 mmHg 38%
    14:00 +27°C° 0 mm 2 mps 656 mmHg 38%
    15:00 +27°C° 0 mm 2 mps 656 mmHg 39%
    16:00 +27°C° 0 mm 2 mps 655 mmHg 40%
    17:00 +25°C° 0 mm 2 mps 655 mmHg 45%
    18:00 +23°C° 0 mm 1 mps 655 mmHg 50%
    19:00 +21°C° 0 mm 1 mps 655 mmHg 55%
    20:00 +21°C° 0 mm 1 mps 655 mmHg 56%
    21:00 +20°C° 0 mm 1 mps 655 mmHg 58%
    22:00 +20°C° 0 mm 1 mps 655 mmHg 59%
    23:00 +20°C° 0 mm 1 mps 655 mmHg 60%
    Show more